Location: Newark
(60.0000°N, 100.0000°E)
Time: 05:34:04
(UTC+00:00)

N. Korean satellite - Pass Details

Date: 22 November 2019
Orbit: 455 x 507 km, 97.2° (Epoch: 14 December)

Event Time Altitude Azimuth Distance (km) Brightness Sun altitude
Rises 22:04:42 0° 25° (NNE) 2,622 10.6 -25.1°
Reaches altitude 10° 22:07:37 10° 50° (NE) 1,725 10.0 -24.7°
Maximum altitude 22:09:45 15° 86° (E) 1,448 9.9 -24.4°
Drops below altitude 10° 22:11:51 10° 121° (ESE) 1,705 10.1 -24.2°
Sets 22:14:42 0° 146° (SE) 2,571 10.7 -23.8°
